Sunshine Coast Airport Observation History
Time Wind Speed Temp Pressure Rel. Hum Rain
08/03:30am SW 7-9 kts 15.3°c 1013.5 hPa 97% 17.2mm
08/03:12am SW 5-6 kts 15.1°c 1013.4 hPa 97% 17.2mm
08/03:01am WSW 5-6 kts 15.0°c 1013.4 hPa 97% 17.2mm
08/03:00am WSW 5-6 kts 15.0°c 1013.4 hPa 97% 17.2mm
08/02:41am W 4-6 kts 14.8°c 1013.7 hPa 97% 17.2mm
08/02:33am W 5-6 kts 14.7°c 1013.7 hPa 97% 17.2mm
08/02:30am W 4-6 kts 14.7°c 1013.7 hPa 97% 17.2mm
08/02:00am S 2-5 kts 14.1°c 1013.7 hPa 97% 17.2mm
08/01:30am S 4-6 kts 14.0°c 1013.7 hPa 97% 17.2mm
08/01:00am S 4 kts 14.0°c 1014.0 hPa 97% 17.2mm
08/12:30am S 3-4 kts 14.3°c 1014.3 hPa 96% 17.2mm
08/12:00am S 3-4 kts 14.7°c 1014.7 hPa 96% 17.2mm
Time Wind Speed Temp Pressure Rel. Hum Rain
07/11:40pm S 4-5 kts 14.8°c 1015.1 hPa 96% 17.2mm
07/11:30pm S 4 kts 15.0°c 1015.2 hPa 96% 17.2mm
07/11:26pm S 4 kts 15.1°c 1015.2 hPa 96% 17.2mm
07/11:12pm S 4-5 kts 15.2°c 1015.4 hPa 96% 17.2mm
07/11:00pm S 5 kts 15.1°c 1015.4 hPa 96% 17.2mm
07/10:30pm S 4-5 kts 15.3°c 1015.6 hPa 96% 17.2mm
07/10:10pm S 3-4 kts 15.3°c 1015.9 hPa 96% 17.2mm
07/10:00pm S 3-4 kts 15.7°c 1015.8 hPa 96% 17.2mm
07/09:30pm S 3-4 kts 15.9°c 1015.8 hPa 95% 17.2mm
07/09:00pm S 5-6 kts 16.0°c 1016.3 hPa 95% 17.0mm
07/08:30pm S 4-5 kts 16.5°c 1016.1 hPa 95% 17.0mm
07/08:00pm SSE 4-5 kts 16.7°c 1015.9 hPa 94% 17.0mm
07/07:30pm SSE 3-4 kts 16.7°c 1016.0 hPa 94% 17.0mm
07/07:00pm S 7-9 kts 16.9°c 1015.9 hPa 94% 16.0mm
07/06:30pm SSE 7-9 kts 17.1°c 1015.8 hPa 95% 15.0mm
07/06:00pm SE 4-6 kts 17.2°c 1015.4 hPa 95% 13.8mm
07/05:30pm SW 3-4 kts 17.5°c 1015.0 hPa 95% 13.6mm
07/05:00pm S 4-5 kts 17.5°c 1015.0 hPa 95% 12.6mm
07/04:32pm SSW 4-5 kts 17.4°c 1014.4 hPa 95% 12.4mm
07/04:30pm SSW 4-5 kts 17.4°c 1014.4 hPa 95% 12.4mm
07/04:23pm SSW 4-5 kts 17.4°c 1014.4 hPa 95% 12.4mm
07/04:00pm W 5-9 kts 17.4°c 1014.5 hPa 94% 9.6mm
07/03:31pm WNW 12-15 kts 18.0°c 1013.6 hPa 93% 4.6mm
07/03:30pm WNW 12-15 kts 18.0°c 1013.6 hPa 93% 3.8mm
07/03:26pm NW 11-15 kts 18.2°c 1013.4 hPa 92% 3.2mm
07/03:05pm NNE 11-23 kts 18.5°c 1011.7 hPa 88% 2.2mm
07/03:00pm N 9-13 kts 19.1°c 1011.7 hPa 86% 1.6mm
07/02:30pm N 12-19 kts 20.1°c 1012.3 hPa 75% 1.2mm
07/02:00pm NNE 16-22 kts 21.4°c 1011.8 hPa 75% 1.2mm
07/01:30pm NNE 16-21 kts 20.1°c 1012.7 hPa 78% 1.2mm
07/01:19pm NNE 16-24 kts 20.0°c 1013.5 hPa 78% 1.2mm
07/01:00pm N 10-14 kts 18.9°c 1013.6 hPa 86% 1.2mm
07/12:30pm NNE 13-18 kts 20.4°c 1013.8 hPa 80% 1.2mm
07/12:00pm NE 11-14 kts 19.3°c 1014.8 hPa 90% 1.2mm
07/11:30am NE 10-14 kts 18.6°c 1016.1 hPa 93% 1.2mm
07/11:27am NE 10-14 kts 18.5°c 1016.1 hPa 94% 1.2mm
07/11:00am NE 11-17 kts 18.0°c 1017.1 hPa 93% 0.6mm
07/10:56am NE 11-14 kts 17.8°c 1017.1 hPa 92% 0.6mm
07/10:47am NE 14-19 kts 17.6°c 1016.9 hPa 91% 0.6mm
07/10:30am NNE 18-22 kts 17.7°c 1017.1 hPa 91% 0.4mm
07/10:25am NE 19-29 kts 17.7°c 1017.0 hPa 89% 0.2mm
07/10:24am NE 19-29 kts 17.7°c 1017.0 hPa 88% 0.2mm
07/10:20am NE 18-29 kts 18.2°c 1016.7 hPa 84% 0.0mm
07/10:18am ENE 17-29 kts 19.8°c 1016.6 hPa 78% 0.0mm
07/10:00am ENE 14-18 kts 20.6°c 1017.1 hPa 77% 0.0mm
07/09:30am ENE 12-15 kts 20.4°c 1017.4 hPa 77% 0.0mm
07/09:00am NE 11-14 kts 19.9°c 1017.7 hPa 80% 0.0mm
07/08:30am WSW 4-5 kts 15.9°c 1018.0 hPa 96% 0.0mm
07/08:00am NW 4-5 kts 14.9°c 1018.3 hPa 96% 0.0mm
07/07:30am NW 3-4 kts 13.9°c 1018.3 hPa 97% 0.0mm
07/07:00am NW 4 kts 12.9°c 1018.4 hPa 96% 0.0mm
07/06:30am NW 4-5 kts 12.8°c 1018.1 hPa 96% 0.0mm
07/06:00am NW 2-3 kts 12.6°c 1018.0 hPa 96% 0.0mm
07/05:30am NW 4 kts 12.5°c 1017.8 hPa 96% 0.0mm
07/05:00am NW 3-4 kts 11.8°c 1017.3 hPa 96% 0.0mm
07/04:30am CALM 0 kts 12.0°c 1017.1 hPa 96% 0.0mm
07/04:00am CALM 0 kts 12.3°c 1017.0 hPa 96% 0.0mm
07/03:30am NW 4 kts 12.9°c 1016.7 hPa 96% 0.0mm
07/03:00am NW 4 kts 13.0°c 1017.1 hPa 96% 0.0mm
07/02:30am NW 3-4 kts 13.2°c 1017.2 hPa 96% 0.0mm
07/02:00am NW 3-4 kts 13.5°c 1017.2 hPa 96% 0.0mm
07/01:30am CALM 0 kts 13.6°c 1017.3 hPa 96% 0.0mm
07/01:00am NW 2-3 kts 14.2°c 1017.4 hPa 96% 0.0mm
07/12:30am NW 3-4 kts 14.1°c 1017.9 hPa 96% 0.0mm
07/12:00am CALM 0 kts 13.9°c 1017.8 hPa 95% 0.0mm
Time Wind Speed Temp Pressure Rel. Hum Rain
06/11:30pm CALM 0 kts 14.2°c 1017.9 hPa 96% 0.0mm
06/11:11pm CALM 0 kts 14.2°c 1018.0 hPa 95% 0.0mm
06/11:00pm CALM 0 kts 14.4°c 1017.9 hPa 95% 0.0mm
06/10:37pm CALM 0 kts 14.2°c 1017.7 hPa 95% 0.0mm
06/10:30pm CALM 0 kts 14.4°c 1017.7 hPa 95% 0.0mm
06/10:15pm CALM 0-3 kts 14.6°c 1017.9 hPa 95% 0.0mm
06/10:00pm NW 3-4 kts 14.8°c 1017.9 hPa 95% 0.0mm
06/09:41pm NW 4 kts 15.6°c 1017.8 hPa 95% 0.0mm
06/09:30pm NW 3-4 kts 15.0°c 1017.8 hPa 93% 0.0mm
06/09:20pm NW 3-4 kts 15.8°c 1017.7 hPa 95% 0.0mm
06/09:00pm NW 5-6 kts 16.1°c 1017.6 hPa 94% 0.0mm
06/08:30pm WNW 6-7 kts 16.2°c 1017.4 hPa 91% 0.0mm
06/08:00pm NW 5-6 kts 16.7°c 1017.1 hPa 91% 0.0mm
06/07:30pm NNW 5-7 kts 18.0°c 1016.9 hPa 90% 0.0mm
06/07:00pm N 7-9 kts 19.0°c 1016.5 hPa 89% 0.0mm
06/06:30pm NNE 8-10 kts 19.4°c 1016.3 hPa 88% 0.0mm
06/06:00pm NNE 10-12 kts 19.7°c 1015.9 hPa 87% 0.0mm
06/05:30pm NNE 11-13 kts 19.9°c 1015.6 hPa 85% 0.0mm
06/05:00pm NNE 12-15 kts 20.4°c 1015.3 hPa 82% 0.0mm
06/04:30pm NNE 12-15 kts 21.0°c 1015.1 hPa 81% 0.0mm
06/04:00pm NE 12-15 kts 21.6°c 1015.0 hPa 78% 0.0mm
06/03:30pm NE 12-15 kts 22.2°c 1015.0 hPa 77% 0.0mm
06/03:00pm NNE 13-15 kts 22.5°c 1015.0 hPa 75% 0.0mm
06/02:30pm NE 12-14 kts 22.6°c 1014.9 hPa 74% 0.0mm
06/02:00pm NE 13-16 kts 22.3°c 1015.0 hPa 73% 0.0mm
06/01:30pm NE 12-14 kts 22.6°c 1015.2 hPa 65% 0.0mm
06/01:00pm NE 12-15 kts 22.6°c 1015.4 hPa 66% 0.0mm
06/12:30pm NE 11-13 kts 21.9°c 1015.7 hPa 67% 0.0mm
06/12:00pm NE 10-13 kts 21.5°c 1016.2 hPa 66% 0.0mm
06/11:30am NE 10-14 kts 21.8°c 1016.6 hPa 67% 0.0mm
06/11:00am ENE 7-10 kts 21.9°c 1016.9 hPa 63% 0.0mm
06/10:30am NW 5-7 kts 22.4°c 1017.5 hPa 56% 0.0mm
06/10:00am NW 6-8 kts 21.6°c 1018.1 hPa 61% 0.0mm
06/09:30am NW 3-5 kts 19.6°c 1018.3 hPa 69% 0.0mm
06/09:00am NW 5-6 kts 17.1°c 1018.2 hPa 76% 0.0mm
06/08:30am NW 5 kts 15.2°c 1018.2 hPa 85% 0.0mm
06/08:00am WNW 6-7 kts 13.2°c 1017.7 hPa 90% 0.0mm
06/07:30am WNW 5-6 kts 11.9°c 1017.5 hPa 96% 0.0mm
06/07:00am WNW 4-5 kts 10.5°c 1017.2 hPa 96% 0.0mm
06/06:30am W 5-6 kts 10.0°c 1016.9 hPa 96% 0.0mm
06/06:00am W 5-6 kts 10.5°c 1016.5 hPa 96% 0.0mm
06/05:30am NW 6-8 kts 9.7°c 1016.0 hPa 96% 0.0mm
06/05:00am NW 6-7 kts 9.6°c 1015.6 hPa 96% 0.0mm
06/04:30am WNW 5-6 kts 10.0°c 1015.4 hPa 96% 0.0mm
06/04:00am W 3-5 kts 10.4°c 1015.2 hPa 96% 0.0mm
06/03:30am NW 3-5 kts 9.8°c 1015.3 hPa 96% 0.0mm
06/03:00am NW 4-5 kts 10.9°c 1015.3 hPa 96% 0.0mm
06/02:30am NW 5 kts 10.1°c 1015.3 hPa 95% 0.0mm
06/02:00am WSW 4-5 kts 11.4°c 1015.3 hPa 95% 0.0mm
06/01:30am SW 5-7 kts 11.8°c 1015.4 hPa 95% 0.0mm
06/01:00am W 6-7 kts 11.5°c 1015.4 hPa 95% 0.0mm
06/12:30am W 6-7 kts 11.8°c 1015.5 hPa 95% 0.0mm
06/12:00am WNW 6-7 kts 11.8°c 1015.4 hPa 93% 0.0mm